Regional Weather Roundup
Issued by NWS

Home | Current Version | Previous Version | Text Only | Print | Product List | Glossary Off
Versions: 1 2 3 4 5 6 7 8 9 10 11 12 13 14 15 16 17 18 19 20 21 22 23 24 25 26 27

000
ASUS45 KTFX 221410
RWRMT
MONTANA REGIONAL WEATHER ROUNDUP
NATIONAL WEATHER SERVICE GREAT FALLS MT
800 AM MDT SAT JUL 22 2017

NOTE: "FAIR" INDICATES FEW OR NO CLOUDS BELOW 12000 FEET WITH NO
SIGNIFICANT WEATHER AND/OR OBSTRUCTIONS TO VISIBILITY.

MTZ001>007-043-221500-
WEST OF THE DIVIDE

CITY           SKY/WX    TMP DP  RH WIND       PRES   REMARKS
KALISPELL      SUNNY     56  45  66 CALM      30.19R
MISSOULA       SUNNY     56  36  47 SE5       30.24R
BUTTE          SUNNY     49  32  52 CALM      30.30R
MULLAN PASS    SUNNY     56  33  42 VRB3      30.32R
ANACONDA         N/A     55  30  38 NW3       30.27R
DEER LODGE       N/A     54  36  50 CALM      30.29R
EUREKA           N/A     61  43  51 MISG      30.17R
HAMILTON         N/A     55  36  47 S6        30.24S
LIBBY            N/A     55  43  62 CALM      30.18R
$$

MTZ008-052>055-221500-
SOUTHWEST MONTANA

CITY           SKY/WX    TMP DP  RH WIND       PRES   REMARKS
BOZEMAN        SUNNY     58  40  51 E3        30.24R
DILLON         SUNNY     53  34  48 SW9       30.26R
W YELLOWSTONE  SUNNY     48  36  61 CALM      30.35R
ENNIS          SUNNY     54  34  47 CALM      30.32R
THREE FORKS      N/A     52  41  66 CALM      30.20R
TWIN BRIDGES     N/A     53  33  46 CALM      30.22R
$$

MTZ009-010-012-014-046-048-049-054-221500-
EAST SLOPES AND CENTRAL MONTANA

CITY           SKY/WX    TMP DP  RH WIND       PRES   REMARKS
CUT BANK       MOSUNNY   57  44  62 CALM      30.16S
GREAT FALLS    SUNNY     60  38  43 W5        30.17R
HELENA         SUNNY     63  36  36 CALM      30.21R
CHOTEAU          N/A     61  39  44 CALM      30.20R
CONRAD           N/A     61  50  67 SW6       30.17R
$$

MTZ011-013-016-021-045-047-050-051-221500-
NORTH CENTRAL MONTANA

CITY           SKY/WX    TMP DP  RH WIND       PRES   REMARKS
HAVRE          SUNNY     61  44  53 CALM      30.13R
LEWISTOWN      SUNNY     60  36  40 SE5       30.19R
N BAR RANCH      N/A     61  34  36 CALM      30.23R
CHINOOK          N/A     61  45  55 W6        30.12S
$$

MTZ017>020-022>027-061-062-221500-
NORTHEAST MONTANA

CITY           SKY/WX    TMP DP  RH WIND       PRES   REMARKS
GLASGOW        SUNNY     65  45  48 W10       30.08R
JORDAN           N/A     70  42  36 NW10      30.10S
SIDNEY         MOSUNNY   70  44  39 NW15G22   30.02R
WOLF POINT     SUNNY     65  47  52 SW9       30.05R
MALTA          SUNNY     66  48  52 W8        30.10R
PLENTYWOOD       N/A     61  52  72 W14       30.01S
POPLAR           N/A     64  46  52 W7        30.05R
SCOBEY           N/A     61  46  57 W13       30.03R
$$

MTZ028>42-056>058-221500-
SOUTHCENTRAL AND SOUTHEAST MONTANA

CITY           SKY/WX    TMP DP  RH WIND       PRES   REMARKS
BAKER          SUNNY     69  37  30 W6        30.08R
BILLINGS       MOSUNNY   64  31  28 SW5       30.16R
LIVINGSTON     SUNNY     54  36  50 NW7       30.23R
MILES CITY     SUNNY     67  31  26 NW7       30.09R
BIG TIMBER     SUNNY     61  36  39 CALM      30.24S
EKALAKA          N/A     68  32  26 CALM      30.09R
FORSYTH          N/A     64  30  27 W7        30.11R
LAUREL           N/A     63  42  46 CALM      30.15F
ROUNDUP          N/A     61  29  29 SW5       30.07R
$$

REGIONAL REPORTS...DAKOTAS

CITY           SKY/WX    TMP DP  RH WIND       PRES   REMARKS
WILLISTON      SUNNY     70  46  42 W18       29.99S
MINOT          SUNNY     71  55  56 W14       29.93R
DICKINSON      SUNNY     68  48  48 W9        30.02R
BEACH            N/A     66  46  48 NW6       30.09R
CROSBY         PTSUNNY   64  54  68 W9G15     29.97F
TIOGA            N/A     66  48  52 NW13      30.00S
WATFORD CITY     N/A     66  48  52 VRB6      30.00R
BISMARCK       SUNNY     69  59  70 W8        29.97R
GRAND FORKS    SUNNY     74  69  85 W7        29.80R
FARGO          SUNNY     72  66  81 W9        29.85R
BUFFALO SD       N/A     65  53  65 W3        30.02R
RAPID CITY     CLOUDY    72  46  39 N12       30.05F
$$

REGIONAL REPORTS...WYOMING/IDAHO/WASHINGTON

CITY           SKY/WX    TMP DP  RH WIND       PRES   REMARKS
GILLETTE       SUNNY     70  34  26 N12       30.15R
SHERIDAN       SUNNY     64  48  56 CALM      30.17R
BUFFALO WY     SUNNY     68  34  28 N9        30.22R
CODY           SUNNY     66  38  35 CALM      30.25
YELLOWSTONE LA   N/A     48  42  80 CALM      30.41S
IDAHO FALLS    SUNNY     57  43  59 VRB3      30.22R
BOISE          SUNNY     64  40  41 CALM      30.13R
SPOKANE        MOSUNNY   61  42  49 S7        30.18R
$$

REGIONAL REPORTS...ALBERTA

CITY           SKY/WX    TMP DP  RH WIND       PRES   REMARKS
EDMONTON       SUNNY     59  55  88 W5        30.01R
CALGARY        PTSUNNY   57  45  62 CALM      30.10S
LETHBRIDGE     PTSUNNY   59  46  63 SW9       30.11R
MEDICINE HAT   PTSUNNY   59  50  72 SW8       30.09R
WATERTON GATE    N/A     61  43  51 S7          N/A
CARDSTON         N/A     61  43  51 SW6         N/A
MILK RIVER       N/A     57  46  67 W6          N/A
ONEFOUR          N/A     63  45  51 W3          N/A
$$

REGIONAL REPORTS...SASKATCHEWAN

CITY           SKY/WX    TMP DP  RH WIND       PRES   REMARKS
SWIFT CURRENT  SUNNY     57  52  82 W9        30.06R
REGINA         MOSUNNY   61  55  82 NW10      29.99R
SASKATOON      FOG       54  54 100 VRB2      30.00R VSB 3/8
CYPRESS HILLS    N/A     57  48  72 NW7         N/A
VAL MARIE        N/A     61  48  63 W12         N/A
ROCKGLEN         N/A     59  52  77 W14         N/A
$$




USA.gov is the U.S. government's official web portal to all federal, state and local government web resources and services.